Waarnemingen

Advertentie
Mijn weer
Beauvechain, België (6458): temperatuur & dauwpunt: 09.08.2018 15:00:00 - 15.08.2018 15:00:00 (CEST)Beauvechain, België (6458): windsnelheid & windstoten: 09.08.2018 15:00:00 - 15.08.2018 15:00:00 (CEST)Beauvechain, België (6458): windrichting: 09.08.2018 15:00:00 - 15.08.2018 15:00:00 (CEST)Beauvechain, België (6458): luchtdruk: 09.08.2018 15:00:00 - 15.08.2018 15:00:00 (CEST)Beauvechain, België (6458): zicht: 09.08.2018 15:00:00 - 15.08.2018 15:00:00 (CEST)
Datum & Tijd tt [°C] td [°C] ff [km/u] ff [kn] fx [km/u] fx [kn] dd ppp [hPa] vv [km]
15.08.2018 15:00:00 20,6 15,0 22 12 29 16 ZW 1020,2 20
15.08.2018 14:00:00 20,0 15,4 14 8 - - ZW 1020,3 20
15.08.2018 13:00:00 19,7 14,8 18 10 25 14 WZW 1020,3 10
15.08.2018 12:00:00 19,8 15,1 18 10 25 14 WZW 1020,5 20
15.08.2018 11:00:00 19,2 15,1 18 10 - - WZW 1020,5 18
15.08.2018 10:00:00 18,2 15,0 14 8 25 14 WZW 1020,1 19
15.08.2018 09:00:00 17,2 15,0 14 8 22 12 ZW 1019,7 18
15.08.2018 08:00:00 16,6 14,8 14 8 - - ZW 1019,6 17
15.08.2018 07:00:00 16,1 14,4 14 8 22 12 ZW 1019,2 18
15.08.2018 06:00:00 15,6 13,9 11 6 18 10 ZZW 1018,8 18
15.08.2018 05:00:00 15,6 13,8 14 8 - - ZW 1019,0 19
15.08.2018 04:00:00 15,1 13,1 11 6 14 8 ZW 1019,3 20
15.08.2018 03:00:00 15,0 12,7 11 6 14 8 ZW 1019,6 20
15.08.2018 02:00:00 15,8 12,8 11 6 - - ZW 1019,8 20
15.08.2018 01:00:00 16,5 12,5 11 6 14 8 ZW 1019,7 20
15.08.2018 00:00:00 17,0 12,5 11 6 11 6 ZW 1019,5 20
14.08.2018 23:00:00 18,1 12,5 7 4 - - WZW 1019,1 20
14.08.2018 22:00:00 18,3 12,5 4 2 11 6 N 1019,0 20
14.08.2018 21:00:00 18,9 13,3 4 2 22 12 N 1018,6 20
14.08.2018 20:00:00 20,2 12,6 11 6 - - W 1017,8 20
14.08.2018 19:00:00 21,0 13,1 14 8 29 16 W 1017,6 20
14.08.2018 18:00:00 21,9 13,5 18 10 29 16 W 1017,2 20
14.08.2018 17:00:00 21,8 14,3 14 8 - - W 1017,1 20
14.08.2018 16:00:00 22,3 14,4 14 8 22 12 W 1016,7 20
14.08.2018 15:00:00 21,0 15,6 7 4 14 8 WNW 1016,7 20
14.08.2018 14:00:00 18,3 15,6 7 4 - - NNW 1016,6 20
14.08.2018 13:00:00 20,4 15,2 18 10 25 14 WZW 1016,0 15
14.08.2018 12:00:00 19,9 15,6 11 6 22 12 W 1015,7 12
14.08.2018 11:00:00 19,7 15,6 11 6 - - WZW 1015,2 12
14.08.2018 10:00:00 18,5 16,0 14 8 25 14 WZW 1015,1 8
14.08.2018 09:00:00 17,7 15,9 14 8 18 10 WZW 1014,6 7
14.08.2018 08:00:00 16,7 15,4 11 6 - - ZW 1013,8 5
14.08.2018 07:00:00 16,3 15,2 11 6 18 10 WZW 1013,1 5
14.08.2018 06:00:00 16,1 14,9 14 8 22 12 WZW 1012,5 9
14.08.2018 05:00:00 15,6 14,4 14 8 - - ZW 1012,2 14
14.08.2018 04:00:00 15,0 13,8 15 8 25 14 ZW 1011,7 10
14.08.2018 03:00:00 15,3 13,7 18 10 22 12 ZW 1011,7 19
14.08.2018 02:00:00 15,6 13,7 14 8 - - ZW 1011,3 20
14.08.2018 01:00:00 16,1 13,8 15 8 22 12 ZW 1011,0 10
14.08.2018 00:00:00 16,7 14,2 14 8 22 12 WZW 1010,5 20
13.08.2018 23:00:00 17,2 14,6 14 8 - - WZW 1010,0 20
13.08.2018 22:00:00 17,2 15,2 7 4 11 6 ZW 1009,7 20
13.08.2018 21:00:00 17,6 15,3 7 4 18 10 ZW 1009,1 20
13.08.2018 20:00:00 18,3 14,5 11 6 - - WZW 1008,7 20
13.08.2018 19:00:00 18,5 15,0 11 6 18 10 WZW 1008,2 20
13.08.2018 18:00:00 18,1 14,5 11 6 18 10 ZW 1007,8 20
13.08.2018 17:00:00 15,9 13,7 18 10 - - ZZW 1008,0 4,0
13.08.2018 16:00:00 19,2 15,7 22 12 36 19 ZZW 1007,5 20
13.08.2018 15:00:00 17,7 15,6 18 10 40 21 WZW 1007,7 20
13.08.2018 14:00:00 18,9 14,8 29 16 - - WZW 1007,5 20
13.08.2018 13:00:00 20,8 16,5 18 10 32 18 WZW 1006,8 20
13.08.2018 12:00:00 18,7 17,5 18 10 29 16 ZW 1007,1 12
13.08.2018 11:00:00 16,9 16,5 22 12 - - ZW 1007,1 8
13.08.2018 10:00:00 17,7 16,6 15 8 25 14 ZZW 1007,1 10
13.08.2018 09:00:00 17,0 16,3 18 10 25 14 ZW 1007,1 8
13.08.2018 08:00:00 16,7 16,0 7 4 - - ZZW 1006,7 12
13.08.2018 07:00:00 16,3 15,7 4 2 14 8 N 1006,6 15
13.08.2018 06:00:00 16,2 15,5 8 4 22 12 OZO 1006,2 10
13.08.2018 05:00:00 16,7 15,3 13 7 - - ZZO 1008,0 6
13.08.2018 04:00:00 18,3 14,3 4 2 22 12 N 1007,2 19
13.08.2018 03:00:00 19,4 12,6 14 8 29 16 WZW 1007,8 20
13.08.2018 02:00:00 20,6 10,0 14 8 - - W 1008,2 20
13.08.2018 01:00:00 20,8 9,9 11 6 14 8 ZO 1007,7 20
13.08.2018 00:00:00 21,3 8,9 7 4 14 8 ZZO 1008,3 20
12.08.2018 23:00:00 21,7 8,8 11 6 - - ZO 1008,7 20
12.08.2018 22:00:00 22,2 9,2 11 6 14 8 ZZO 1009,6 20
12.08.2018 21:00:00 23,6 8,7 7 4 18 10 ZZO 1009,7 20
12.08.2018 20:00:00 25,0 8,1 11 6 - - Z 1010,0 20
12.08.2018 19:00:00 26,2 8,7 11 6 29 16 Z 1010,2 20
12.08.2018 18:00:00 27,0 7,5 14 8 32 18 Z 1010,8 20
12.08.2018 17:00:00 26,4 7,8 14 8 - - Z 1011,6 20
12.08.2018 16:00:00 27,1 5,2 14 8 29 16 Z 1012,6 20
12.08.2018 15:00:00 26,3 7,0 14 8 25 14 ZZW 1013,2 20
12.08.2018 14:00:00 25,7 6,3 14 8 - - Z 1014,2 20
12.08.2018 13:00:00 25,3 5,3 14 8 29 16 Z 1014,8 20
12.08.2018 12:00:00 23,6 7,2 22 12 29 16 ZZW 1015,7 20
12.08.2018 11:00:00 22,2 6,6 18 10 - - Z 1016,2 20
12.08.2018 10:00:00 21,0 6,9 18 10 29 16 Z 1016,7 20
12.08.2018 09:00:00 18,3 8,2 14 8 25 14 Z 1017,2 20
12.08.2018 08:00:00 16,5 8,0 14 8 - - Z 1017,5 20
12.08.2018 07:00:00 14,8 7,2 11 6 22 12 Z 1017,7 20
12.08.2018 06:00:00 14,8 6,9 11 6 22 12 Z 1018,1 20
12.08.2018 05:00:00 14,8 6,6 11 6 - - Z 1018,7 20
12.08.2018 04:00:00 15,0 7,0 7 4 11 6 Z 1019,5 20
12.08.2018 03:00:00 16,0 6,7 4 2 7 4 N 1020,0 20
12.08.2018 02:00:00 15,9 7,0 7 4 - - Z 1020,6 20
12.08.2018 01:00:00 15,8 7,2 4 2 4 2 N 1021,2 20
12.08.2018 00:00:00 16,6 7,2 4 2 4 2 N 1021,6 20
11.08.2018 23:00:00 16,8 7,5 4 2 - - N 1021,8 20
11.08.2018 22:00:00 17,4 7,8 4 2 4 2 N 1022,1 20
11.08.2018 21:00:00 18,2 8,0 4 2 14 8 N 1022,1 20
11.08.2018 20:00:00 20,6 6,5 11 6 - - W 1022,0 20
11.08.2018 19:00:00 20,7 5,8 11 6 22 12 W 1022,2 20
11.08.2018 18:00:00 21,1 5,9 11 6 25 14 W 1022,3 20
11.08.2018 17:00:00 21,1 5,4 14 8 - - W 1022,7 20
11.08.2018 16:00:00 21,4 6,5 18 10 29 16 W 1023,1 20
11.08.2018 15:00:00 20,5 6,0 11 6 25 14 WNW 1023,5 20
11.08.2018 14:00:00 20,1 6,9 11 6 - - WNW 1024,0 20
11.08.2018 13:00:00 18,8 6,6 11 6 29 16 W 1024,0 20
11.08.2018 12:00:00 18,0 5,8 14 8 29 16 W 1024,2 20
11.08.2018 11:00:00 16,9 8,0 14 8 - - W 1024,2 20
11.08.2018 10:00:00 16,6 10,0 14 8 25 14 WZW 1024,2 20
11.08.2018 09:00:00 15,2 11,0 14 8 18 10 WZW 1023,8 20
11.08.2018 08:00:00 13,6 11,3 11 6 - - ZW 1023,3 18
11.08.2018 07:00:00 12,6 11,2 11 6 18 10 ZW 1023,0 20
11.08.2018 06:00:00 12,9 11,3 11 6 18 10 ZW 1022,3 20
11.08.2018 05:00:00 13,5 11,5 11 6 - - WZW 1022,0 20
11.08.2018 04:00:00 13,8 10,8 11 6 22 12 WZW 1021,7 20
11.08.2018 03:00:00 14,6 11,8 14 8 29 16 WZW 1021,7 20
11.08.2018 02:00:00 15,0 12,8 18 10 - - WZW 1021,6 20
11.08.2018 01:00:00 16,0 12,0 22 12 36 19 W 1021,3 20
11.08.2018 00:00:00 18,5 7,3 18 10 36 19 ZW 1020,3 20
10.08.2018 23:00:00 18,8 6,5 22 12 - - ZZW 1020,3 20
10.08.2018 22:00:00 19,3 6,3 18 10 29 16 ZW 1020,5 16
10.08.2018 21:00:00 19,5 6,3 22 12 32 18 ZW 1020,5 20
10.08.2018 20:00:00 20,5 5,9 22 12 - - ZW 1020,3 20
10.08.2018 19:00:00 21,7 5,4 29 16 47 25 ZW 1020,6 20
10.08.2018 18:00:00 20,9 5,5 25 14 47 25 ZW 1020,7 20
10.08.2018 17:00:00 21,7 5,6 32 18 - - ZW 1021,0 20
10.08.2018 16:00:00 20,9 6,3 29 16 47 25 ZW 1021,6 20
10.08.2018 15:00:00 21,9 7,1 22 12 47 25 ZW 1021,8 20
10.08.2018 14:00:00 20,4 7,1 25 14 - - ZW 1022,2 20
10.08.2018 13:00:00 19,5 8,2 29 16 47 25 ZW 1022,5 20
10.08.2018 12:00:00 18,0 8,1 25 14 40 21 ZW 1022,6 20
10.08.2018 11:00:00 17,9 9,4 29 16 - - ZW 1022,3 20
10.08.2018 10:00:00 16,9 10,7 22 12 32 18 ZW 1022,3 20
10.08.2018 09:00:00 15,2 11,0 22 12 32 18 ZW 1022,1 20
10.08.2018 08:00:00 13,3 10,9 25 14 - - ZZW 1021,8 20
10.08.2018 07:00:00 12,4 10,5 18 10 25 14 ZZW 1021,2 20
10.08.2018 06:00:00 12,3 10,6 18 10 29 16 ZZW 1020,7 20
10.08.2018 05:00:00 12,6 10,9 22 12 - - ZW 1020,3 20
10.08.2018 04:00:00 12,8 11,4 14 8 18 10 ZZW 1020,3 19
10.08.2018 03:00:00 12,8 11,7 11 6 25 14 ZW 1020,1 13
10.08.2018 02:00:00 13,2 11,5 18 10 - - WZW 1019,2 20
10.08.2018 01:00:00 13,5 11,9 21 11 29 16 WZW 1018,7 10
10.08.2018 00:00:00 13,8 12,3 22 12 43 23 WZW 1017,5 20
09.08.2018 23:00:00 14,6 12,5 25 14 - - WZW 1016,2 18
09.08.2018 22:00:00 14,8 13,0 29 16 47 25 WZW 1014,7 20
09.08.2018 21:00:00 15,5 12,4 29 16 50 27 WZW 1013,2 20
09.08.2018 20:00:00 18,0 14,7 36 19 - - WZW 1011,2 20
09.08.2018 19:00:00 19,6 14,3 40 21 65 35 ZW 1010,1 20
09.08.2018 18:00:00 20,8 15,5 32 18 65 35 ZW 1008,5 10
09.08.2018 17:00:00 24,0 15,8 36 19 - - ZZW 1007,1 10
09.08.2018 16:00:00 23,7 18,0 22 12 40 21 Z 1006,7 7
09.08.2018 15:00:00 20,1 18,4 11 6 18 10 OZO 1007,7 6

tt = temperatuur
td = dauwpunt
ff = windsnelheid
fx = windstoten
dd = windrichting
ppp = luchtdruk
vv = zicht

Weerstations in de omgeving